INMARSAT 3-F2 1 24307U 96053A 09180.96447606 -.00000126 00000-0 10000-3 0 8947 2 24307 000.0777 323.5372 0005346 131.1492 155.1899 01.00270632 46912 INMARSAT 3-F3 1 24674U 96070A 09184.61956566 .00000042 00000-0 10000-3 0 8631 2 24674 000.0795 330.3038 0004858 127.9496 224.6711 01.00274157 45907 INMARSAT 3-F4 1 24819U 97027A 09183.26263435 -.00000285 00000-0 10000-3 0 6415 2 24819 000.1422 053.4797 0005146 066.3832 201.1196 01.00271024 44313 INMARSAT 3-F5 1 25153U 98006B 09181.91422220 .00000139 00000-0 10000-3 0 6309 2 25153 000.4811 356.6519 0003738 105.3020 170.9777 01.00269479 41808 ARTEMIS 1 26863U 01029A 09183.98248043 .00000120 00000-0 10000-3 0 7238 2 26863 007.4889 068.9084 0003079 042.6482 184.6316 01.00269222 30302 MTSAT-1R 1 28622U 05006A 09183.34911193 -.00000279 00000-0 10000-3 0 2034 2 28622 000.0439 149.3252 0002180 157.2151 239.7059 01.00271358 15904 ANIK F1-R 1 28868U 05036A 09182.50000000 -.00000074 00000-0 00000+0 0 6933 2 28868 000.0320 005.4190 0002520 106.9320 240.0200 01.00270993 14035 GALAXY 15 1 28884U 05041A 09183.30017363 +.00000080 +00000-0 +10000-3 0 06533 2 28884 000.0067 349.4497 0002262 127.9211 138.1447 01.00273004013638 MTSAT-2 1 28937U 06004A 09181.55211771 -.00000245 00000-0 10000-3 0 5911 2 28937 000.0544 074.4954 0002383 352.7377 195.2400 01.00268908 12364